Weather History for Billings, MT

Change the Weather History Date:

Tuesday, October 1, 2013

  Actual Average Record
Temperature  
Mean Temperature 53 °F 54 °F  
Max Temperature 66 °F 65 °F 91 °F (2011)
Min Temperature 40 °F 42 °F 23 °F (1950)
Degree Days  
Heating Degree Days 12 12  
Month to date heating degree days 12 12  
Since 1 July heating degree days 126 241  
Cooling Degree Days 0 0  
Month to date cooling degree days 0 0  
Year to date cooling degree days 840 633  
Growing Degree Days 2 (Base 50)    
Moisture  
Dew Point 30 °F    
Average Humidity 44    
Maximum Humidity 62    
Minimum Humidity 26    
Precipitation  
Precipitation 0.00 in 0.05 in 1.67 in (1971)
Month to date precipitation 0.00 0.05  
Year to date precipitation 11.81 11.40  
Snow  
Snow 0.00 in 0.10 in 1.50 in (1971)
Month to date snowfall 0.0 0.1  
Since 1 July snowfall T 1.2  
Since 1 September snowfall T 1.2  
Snow Depth 0.00 in    
Sea Level Pressure  
Sea Level Pressure 29.90 in    
Wind  
Wind Speed 8 mph (SW)    
Max Wind Speed 33 mph    
Max Gust Speed 43 mph    
Visibility 10 miles    
Events      
T = Trace of Precipitation, MM = Missing Value Source: NWS Daily Summary

Daily Weather History Graph

Daily Weather History Graph

Search for Another Location

Airport:

Trip Planner

Search our weather history database for the weather conditions in past years. The results will help you decide how hot, cold, wet, or windy it might be!

Date:

Astronomy

Oct. 01, 2013 Rise Set
Actual Time 7:12 AM MDT 6:53 PM MDT
Civil Twilight 6:43 AM MDT 7:23 PM MDT
Nautical Twilight 6:08 AM MDT 7:57 PM MDT
Astronomical Twilight 5:33 AM MDT 8:32 PM MDT
Moon 3:41 AM MDT (10/1) 5:06 PM MDT (10/1)
Length of Visible Light 12h 40m
Length of Day
11h 40m
Waning Crescent, 11% of the Moon is Illuminated
Oct 1
Waning Crescent
Oct 4
New
Oct 11
First Quarter
Oct 18
Full
Oct 26
Last Quarter

Hourly Weather History & Observations

Time (MDT) Temp. Windchill Dew Point Humidity Pressure Visibility Wind Dir Wind Speed Gust Speed Precip Events Conditions
12:53 AM 53.1 °F - 25.0 °F 34% 29.81 in 10.0 mi West 36.8 mph 49.5 mph N/A   Clear
1:53 AM 51.1 °F - 26.1 °F 38% 29.85 in 10.0 mi West 23.0 mph 33.4 mph N/A   Clear
2:53 AM 48.9 °F - 26.1 °F 41% 29.88 in 10.0 mi NW 15.0 mph - N/A   Clear
3:53 AM 46.0 °F 39.6 °F 26.1 °F 46% 29.89 in 10.0 mi West 15.0 mph - N/A   Clear
4:07 AM 46.9 °F - 26.1 °F 44% 29.90 in 10.0 mi SSW 11.5 mph - N/A   Clear
4:53 AM 46.0 °F 40.6 °F 27.0 °F 47% 29.90 in 10.0 mi SW 11.5 mph - N/A   Clear
5:53 AM 45.0 °F 41.2 °F 27.0 °F 49% 29.91 in 10.0 mi South 6.9 mph - N/A   Clear
6:53 AM 41.0 °F 35.2 °F 28.9 °F 62% 29.94 in 10.0 mi SSW 9.2 mph - N/A   Partly Cloudy
7:53 AM 42.1 °F 38.4 °F 30.0 °F 62% 29.95 in 10.0 mi SSW 5.8 mph - N/A   Scattered Clouds
8:53 AM 46.0 °F 41.9 °F 28.9 °F 51% 29.95 in 10.0 mi SSW 8.1 mph - N/A   Scattered Clouds
9:53 AM 53.1 °F - 28.9 °F 40% 29.94 in 10.0 mi SW 6.9 mph - N/A   Mostly Cloudy
10:53 AM 55.0 °F - 33.1 °F 43% 29.93 in 10.0 mi Variable 4.6 mph - N/A   Scattered Clouds
11:53 AM 59.0 °F - 30.0 °F 33% 29.91 in 10.0 mi Variable 5.8 mph - N/A   Scattered Clouds
12:53 PM 60.1 °F - 30.9 °F 33% 29.89 in 10.0 mi East 5.8 mph - N/A   Scattered Clouds
1:53 PM 62.1 °F - 30.9 °F 31% 29.86 in 10.0 mi ESE 8.1 mph - N/A   Partly Cloudy
2:53 PM 66.0 °F - 30.9 °F 27% 29.84 in 10.0 mi NNW 4.6 mph - N/A   Partly Cloudy
3:53 PM 64.9 °F - 30.9 °F 28% 29.85 in 10.0 mi North 5.8 mph - N/A   Partly Cloudy
4:53 PM 63.0 °F - 33.1 °F 33% 29.85 in 10.0 mi ENE 9.2 mph - N/A   Scattered Clouds
5:53 PM 61.0 °F - 34.0 °F 36% 29.86 in 10.0 mi East 8.1 mph - N/A   Scattered Clouds
6:53 PM 59.0 °F - 33.1 °F 38% 29.88 in 10.0 mi ESE 6.9 mph - N/A   Scattered Clouds
7:53 PM 57.0 °F - 36.0 °F 45% 29.89 in 10.0 mi NNE 4.6 mph - N/A   Mostly Cloudy
8:53 PM 55.0 °F - 34.0 °F 45% 29.90 in 10.0 mi East 4.6 mph - N/A   Partly Cloudy
9:53 PM 55.9 °F - 33.1 °F 42% 29.89 in 10.0 mi Calm Calm - N/A   Partly Cloudy
10:53 PM 53.1 °F - 32.0 °F 45% 29.93 in 10.0 mi NNE 10.4 mph - N/A   Mostly Cloudy
11:53 PM 50.0 °F - 30.9 °F 48% 29.94 in 10.0 mi NNE 8.1 mph - N/A   Mostly Cloudy